Probability
0 0 0 0 0 0 0 0 0 0 0 0 0 0 0 0 0 0 0 0 0 0 0 0 0 0 0 0 0 0 0 0 0 0 0 0 0 0 0 0 0 0 0
0 0 0 0 0 0 0 0 0 0 0 0 0 0 0 0 0 0 0 0 0 0 0 0 0 0 0 0 0 0 0 0 0 0 0 0 0 0 0 0 0 0 0
0 0 0 0 0 0 0 0 0 0 0 0 0 0 0 0 0 0 0 0 0 0 0 0 0 0 0 0 0 0 0 0 0 0 0 0 0 0 0 0 0 0 0
1 0 1 1 0 0 0 0 0 0 0 0 0 0 0 0 0 0 0 0 0 0 0 0 0 0 0 0 0 0 0 0 0 0 0 0 0 0 0 0 0 0 0
2 2 2 1 0 0 0 0 0 0 0 0 0 0 0 0 0 0 0 0 0 0 0 0 0 0 0 0 0 0 0 0 0 0 0 0 0 0 0 0 0 0 0
3 3 2 1 0 0 0 0 0 0 0 0 0 0 0 0 0 0 0 0 0 0 0 0 0 0 0 0 0 0 0 0 0 0 0 0 0 0 0 0 0 0 0
3 3 1 0 0 0 0 0 0 0 0 0 0 0 0 0 0 0 0 0 0 0 0 0 0 0 0 0 0 0 0 0 0 0 0 0 0 0 0 0 0 0 0
2 2 1 0 0 0 0 0 0 0 0 0 0 0 0 0 0 0 0 0 0 0 0 0 0 0 0 0 0 0 0 0 0 0 0 0 0 0 0 0 0 0 0
1 1 0 0 0 0 0 0 0 0 0 0 0 0 0 0 0 0 0 0 0 0 0 0 0 0 0 0 0 0 0 0 0 0 0 0 0 0 0 0 0 0 0
0 0 0 0 0 0 0 0 0 0 0 0 0 0 0 0 0 0 0 0 0 0 0 0 0 0 0 0 0 0 0 0 0 0 0 0 0 0 0 0 0 0 0
0 0 0 0 0 0 0 0 0 0 0 0 0 0 0 0 0 0 0 0 0 0 0 0 0 0 0 0 0 0 0 0 0 0 0 0 0 0 0 0 0 0 0
0 0 0 0 0 0 0 0 0 0 0 0 0 0 0 0 0 0 0 0 0 0 0 0 0 0 0 0 0 0 0 0 0 0 0 0 0 0 0 0 0 0 0
0 0 0 0 0 0 0 0 0 0 0 0 0 0 0 0 0 0 0 0 0 0 0 0 0 0 0 0 0 0 0 0 0 0 0 0 0 0 0 0 0 0 0
0 0 0 0 0 0 0 0 0 0 0 0 0 0 0 0 0 0 0 0 0 0 0 0 0 0 0 0 0 0 0 0 0 0 0 0 0 0 0 0 0 0 0
0 0 0 0 0 0 0 0 0 0 0 0 0 0 0 0 0 0 0 0 0 0 0 0 0 0 0 0 0 0 0 0 0 0 0 0 0 0 0 0 0 0 0
0 0 0 0 0 0 0 0 0 0 0 0 0 0 0 0 0 0 0 0 0 0 0 0 0 0 0 0 0 0 0 0 0 0 0 0 0 0 0 0 0 0 0
0 0 0 0 0 0 0 0 0 0 0 0 0 0 0 0 0 0 0 0 0 0 0 0 0 0 0 0 0 0 0 0 0 0 0 0 0 0 0 0 0 0 0
0 0 0 0 0 0 0 0 0 0 0 0 0 0 0 0 0 0 0 0 0 0 0 0 0 0 0 0 0 0 0 0 0 0 0 0 0 0 0 0 0 0 0
0 0 0 0 0 0 0 0 0 0 0 0 0 0 0 0 0 0 0 0 0 0 0 0 0 0 0 0 0 0 0 0 0 0 0 0 0 0 0 0 0 0 0
0 0 0 0 0 0 0 0 0 0 0 0 0 0 0 0 0 0 0 0 0 0 0 0 0 0 0 0 0 0 0 0 0 0 0 0 0 0 0 0 0 0 0
0 0 0 0 0 0 0 0 0 0 0 0 0 0 0 0 0 0 0 0 0 0 0 0 0 0 0 0 0 0 0 0 0 0 0 0 0 0 0 0 0 0 0
0 0 0 0 0 0 0 0 0 0 0 0 0 0 0 0 0 0 0 0 0 0 0 0 0 0 0 0 0 0 0 0 0 0 0 0 0 0 0 0 0 0 0
0 0 0 0 0 0 0 0 0 0 0 0 0 0 0 0 0 0 0 0 0 0 0 0 0 0 0 0 0 0 0 0 0 0 0 0 0 0 0 0 0 0 0
0 0 0 0 0 0 0 0 0 0 0 0 0 0 0 0 0 0 0 0 0 0 0 0 0 0 0 0 0 0 0 0 0 0 0 0 0 0 0 0 0 0 0
0 0 0 0 0 0 0 0 0 0 0 0 0 0 0 0 0 0 0 0 0 0 0 0 0 0 0 0 0 0 0 0 0 0 0 0 0 0 0 0 0 0 0
0 0 0 0 0 0 0 0 0 0 0 0 0 0 0 0 0 0 0 0 0 0 0 0 0 0 0 0 0 0 0 0 0 0 0 0 0 0 0 0 0 0 0
Wind_Speed
9 7 7 6 6 5 5 5 5 4 4 4 4 4 4 4 3 3 3 3 4 4 3 4 5 4 3 3 3 3 4 4 6 5 3 3 4 6 6 5 5 5 5
9 8 8 7 6 6 6 6 5 5 5 5 4 4 4 4 4 4 4 4 4 5 5 4 5 3 4 3 3 4 4 5 5 7 4 3 5 5 6 6 5 5 5
9 8 7 7 7 7 7 6 6 5 5 5 5 5 5 5 5 5 5 5 5 6 5 5 6 5 5 4 5 5 4 5 5 5 5 3 4 4 4 5 5 4 5
9 9 9 9 9 9 7 6 6 6 6 6 6 6 6 5 5 5 5 5 5 6 6 6 6 6 7 6 5 6 5 5 5 5 6 5 5 4 4 4 5 3 4
10 10 10 9 8 7 7 7 7 7 7 6 6 6 6 5 6 6 6 6 6 6 6 7 7 9 10 8 6 6 6 5 5 5 6 5 5 4 4 3 5 5 5
10 11 9 8 8 8 8 7 7 7 6 6 6 7 7 6 8 10 8 7 7 7 8 7 7 9 11 11 12 11 10 8 8 6 6 7 8 7 5 5 4 4 5
10 9 9 9 9 9 8 7 8 8 7 7 7 7 8 9 11 12 12 8 8 8 9 8 7 7 9 8 9 11 11 12 13 10 10 10 9 7 6 6 6 6 7
9 8 8 8 9 7 7 8 8 6 6 7 7 8 8 10 12 13 12 9 9 10 10 10 10 10 9 8 8 8 9 9 10 9 10 10 10 8 8 7 7 7 7
8 8 9 9 9 8 8 8 7 6 6 7 6 8 9 10 12 13 12 7 8 11 10 10 11 11 13 12 9 10 10 10 10 12 13 12 13 12 9 6 6 6 7
9 8 7 7 8 8 8 7 5 5 7 7 7 8 9 10 12 13 12 6 8 9 9 9 13 14 14 12 10 9 11 11 8 7 8 9 10 10 11 10 9 8 7
4 4 5 5 6 6 5 5 5 5 5 6 8 8 8 10 12 14 13 8 9 9 8 8 8 13 16 15 12 10 13 11 8 7 7 8 7 7 8 8 9 9 9
3 4 4 4 5 5 5 4 4 4 5 6 6 8 7 8 10 12 14 14 13 10 10 9 9 12 14 14 11 12 14 11 7 7 8 8 8 8 8 8 9 10 11
3 3 3 3 3 3 4 4 3 4 4 5 5 7 7 6 7 13 15 16 16 12 10 13 14 13 11 10 13 14 11 8 7 8 9 10 9 9 7 6 7 8 10
1 1 1 2 2 2 2 3 3 4 4 5 5 7 7 6 6 6 7 8 10 11 10 11 13 13 11 10 9 9 8 8 8 9 9 9 7 7 7 6 6 6 6
2 1 1 0 1 1 2 3 4 5 5 6 6 6 7 8 9 11 8 7 7 7 5 5 5 6 7 7 7 7 7 7 8 9 9 9 8 8 7 6 6 6 6
3 2 1 1 1 1 2 3 5 7 9 11 12 11 9 12 15 16 16 15 15 11 6 7 9 9 9 9 8 8 7 8 8 8 8 8 8 8 7 6 6 7 8
3 2 2 2 2 2 2 3 5 6 7 10 12 13 13 15 17 17 16 14 12 8 7 9 10 10 9 9 8 8 8 8 7 7 8 8 8 8 7 7 7 8 8
2 2 2 2 2 3 3 4 4 5 7 6 7 10 13 14 15 15 13 7 5 5 8 9 10 9 9 8 8 8 8 7 7 7 8 8 8 8 8 8 8 9 9
2 2 2 2 3 3 4 4 5 6 6 7 8 9 11 11 11 11 7 5 7 7 8 9 9 9 8 8 8 8 8 7 8 7 7 8 8 8 8 9 9 10 10
2 5 4 3 3 4 4 5 5 6 7 7 8 8 8 7 7 7 5 6 8 8 9 9 9 9 8 8 8 7 7 7 8 8 8 7 7 8 9 10 9 9 8
3 5 7 5 4 5 5 6 6 7 7 8 8 9 11 8 9 10 9 8 8 9 9 9 8 8 8 8 7 8 9 8 7 7 7 7 7 7 8 8 8 8 8
4 4 4 5 5 6 6 6 7 7 8 10 9 10 11 9 9 9 9 9 9 8 8 8 8 8 8 8 7 7 7 7 7 7 6 6 6 7 7 7 7 7 8
4 5 5 5 6 7 7 7 7 8 9 9 9 9 9 8 9 9 9 9 8 8 7 7 8 7 6 6 6 6 7 7 6 6 6 6 6 6 6 7 8 8 8
4 5 6 6 6 6 7 7 7 8 9 9 9 9 9 9 9 10 9 8 8 7 7 6 7 8 9 6 5 5 5 4 4 4 7 6 7 6 6 7 8 9 9
5 5 6 6 6 7 7 7 8 8 9 9 9 9 9 9 9 9 9 8 8 7 7 6 4 4 5 5 4 3 3 3 3 3 4 5 7 8 7 8 7 8 8
5 6 6 6 6 6 7 7 8 8 8 8 8 8 9 9 9 9 8 7 6 6 5 4 3 3 3 2 3 2 2 3 4 4 4 5 6 7 7 6 8 8 8
Wind_Direction
182 182 177 181 181 177 184 195 194 195 195 202 207 211 219 223 217 212 230 231 234 246 245 239 251 249 248 244 230 224 222 217 251 270 259 270 276 283 296 297 289 285 283
183 179 182 180 176 183 196 201 196 202 206 208 208 215 225 227 221 221 238 239 238 249 251 246 254 252 248 246 237 237 234 224 236 267 274 270 263 273 280 289 290 286 281
175 177 179 181 185 195 202 201 199 203 209 209 208 216 225 228 228 230 232 241 242 246 247 245 251 246 254 251 245 246 247 244 231 250 269 266 267 270 279 282 283 283 283
175 178 185 192 195 199 200 200 203 203 207 211 214 219 225 229 233 236 234 241 247 249 247 244 246 242 249 253 253 250 250 252 246 249 262 267 267 269 262 272 283 277 285
176 185 197 197 195 195 198 204 206 207 213 214 217 226 229 230 234 233 234 240 244 252 254 249 248 249 248 245 247 248 246 250 253 253 261 265 267 264 258 255 270 284 281
183 195 196 190 193 199 204 205 205 211 216 214 220 226 232 236 238 236 231 238 242 247 255 258 256 258 260 258 256 252 242 243 248 251 258 259 264 260 258 254 260 273 280
192 197 191 190 198 205 205 202 209 213 213 218 226 228 236 242 245 246 242 236 241 245 248 253 257 254 247 253 260 265 260 250 242 244 253 256 259 253 248 255 249 248 255
192 197 194 193 203 204 201 209 214 211 213 222 230 231 238 248 246 246 247 243 244 246 245 244 248 256 252 244 253 261 263 260 252 246 245 251 252 252 242 250 260 262 260
197 201 197 194 199 199 206 213 212 209 219 223 227 230 237 250 248 246 244 241 246 251 249 244 240 249 251 241 242 255 264 267 259 248 243 249 251 250 241 242 245 248 263
203 203 196 193 197 204 211 212 208 209 225 229 237 236 238 248 250 246 238 235 247 254 254 248 239 239 246 238 234 242 254 262 265 268 260 260 260 259 247 235 238 244 256
188 176 181 188 197 205 206 205 206 211 224 234 244 249 245 247 255 252 241 227 238 248 252 252 246 235 237 239 231 234 242 250 260 261 267 268 265 258 252 239 231 232 240
165 180 193 196 203 206 202 210 208 210 228 242 249 260 256 251 249 254 248 235 231 240 248 250 248 240 235 236 234 236 241 246 253 256 260 262 260 257 252 244 236 234 237
163 186 202 200 205 207 202 215 215 214 229 247 250 261 267 261 254 251 254 250 238 233 245 245 245 245 240 241 240 238 239 240 240 246 253 256 255 256 256 252 246 240 243
148 198 201 197 218 217 216 216 218 225 235 248 255 261 267 269 268 263 257 258 251 241 244 250 250 248 242 244 247 242 233 231 232 243 253 258 258 253 249 244 247 243 247
65 49 36 29 234 243 242 236 233 234 231 242 256 258 265 271 268 262 262 264 258 253 246 243 243 241 240 239 239 240 236 231 233 239 246 253 253 250 249 238 234 233 236
56 40 30 5 343 308 293 296 261 253 266 260 257 261 266 261 271 277 274 267 264 258 236 240 242 240 241 241 239 240 234 232 233 236 239 243 247 248 250 241 230 233 241
57 34 14 1 345 330 320 309 306 301 279 271 268 269 263 269 274 276 275 275 268 236 225 239 242 241 239 238 237 238 240 238 232 232 237 241 243 245 245 244 237 236 240
38 15 357 329 316 309 304 297 291 295 303 300 289 281 279 277 278 275 273 270 259 221 230 240 243 242 239 236 237 237 240 241 236 235 237 240 240 240 242 242 240 238 240
4 329 315 307 302 296 296 296 293 289 286 289 296 298 293 290 285 278 265 242 250 248 240 241 243 244 241 237 237 237 238 240 240 237 238 239 238 237 240 242 242 240 238
310 310 311 301 300 300 299 298 296 293 291 290 291 292 297 300 296 293 272 254 254 255 250 246 244 242 239 238 236 234 234 237 240 239 240 241 238 236 240 243 241 238 235
295 304 311 308 297 294 294 294 293 292 291 292 290 288 286 287 285 284 281 272 261 258 255 251 248 243 238 235 234 232 233 237 238 239 241 241 239 237 239 240 242 240 239
279 286 291 293 295 294 294 293 293 292 292 294 295 296 293 285 282 282 280 277 271 263 258 253 251 245 237 232 230 231 233 238 241 240 242 243 242 242 241 240 240 239 238
274 283 288 289 290 291 294 296 295 295 295 296 297 299 299 294 289 287 285 282 279 275 267 256 252 250 242 235 230 228 234 239 240 242 245 247 247 245 242 241 242 243 239
278 282 286 290 292 291 292 295 295 296 298 300 300 299 298 299 297 294 292 291 287 283 277 266 258 255 250 240 232 230 235 237 238 241 244 249 254 254 249 247 247 246 246
288 287 289 291 294 294 294 294 296 298 300 301 302 303 303 303 302 301 300 297 295 294 293 288 276 267 261 254 247 238 225 223 235 246 246 247 254 258 258 255 252 250 247
298 297 297 297 296 297 297 298 300 302 302 303 306 307 306 306 305 305 307 311 311 308 305 304 299 291 286 278 267 255 234 237 244 245 247 248 253 256 258 256 256 253 251